CW3786 Weather Reports


Display with metric or nautical units.
time (UTC)temp
F
wind
direction
speed
MPH
gust
MPH
rain 1hr
in
rain 24hr
in
rain mn
in
humidity
%
barometer
mb
20260903201514 75 181 1.0 0.0 0.00 0.00 0.00 60 1005.5
20260903200047 75 180 0.0 0.0 0.00 0.00 0.00 57 1005.5
20260903194525 78 261 0.0 0.0 0.00 0.00 0.00 55 1005.8
20260903193008 77 159 0.0 0.0 0.00 0.00 0.00 58 1006.0
20260903191544 77 113 0.0 0.0 0.00 0.00 0.00 57 1006.0
20260903190024 75 360 0.0 0.0 0.00 0.00 0.00 62 1006.4
20260903184512 74 208 0.0 0.0 0.00 0.00 0.00 62 1006.6
20260903183051 73 105 0.0 0.0 0.00 0.00 0.00 65 1006.6
20260903181536 73 290 0.0 0.0 0.00 0.00 0.00 66 1006.8
20260903180108 73 294 0.0 0.0 0.00 0.00 0.00 65 1006.7
20260903180001 73 294 0.0 0.0 0.00 0.00 0.00 65 1006.5
20260903174541 75 300 0.0 0.0 0.00 0.00 0.00 62 1006.5
20260903173105 77 302 0.0 0.0 0.00 0.00 0.00 59 1006.8
20260903173001 77 13 0.0 0.0 0.00 0.00 0.00 58 1006.8
20260903171557 75 71 0.0 0.0 0.00 0.00 0.00 61 1006.8
20260903170028 72 232 0.0 0.0 0.00 0.00 0.00 67 1006.6
20260903164511 71 247 0.0 0.0 0.00 0.00 0.00 70 1006.5
20260903163110 70 150 0.0 0.0 0.00 0.00 0.00 71 1006.5
20260903161526 68 150 0.0 0.0 0.00 0.00 0.00 75 1006.6
20260903160021 68 150 0.0 0.0 0.00 0.00 0.00 83 1006.6
20260903154600 66 194 0.0 0.0 0.00 0.00 0.00 91 1006.6
20260903154502 66 194 0.0 0.0 0.00 0.00 0.00 91 1006.5
20260903153038 65 218 0.0 0.0 0.00 0.00 0.00 94 1006.5
20260903151522 63 224 0.0 0.0 0.00 0.00 0.00 95 1006.6
20260903150020 62 224 0.0 0.0 0.00 0.00 0.00 94 1006.6
20260903144515 61 224 0.0 0.0 0.00 0.00 0.00 93 1006.5
20260903143004 61 224 0.0 0.0 0.00 0.00 0.00 93 1006.2
20260903141526 61 224 0.0 0.0 0.00 0.00 0.00 93 1006.2
20260903140011 61 224 0.0 0.0 0.00 0.00 0.00 93 1006.0
20260903134531 61 224 0.0 0.0 0.00 0.00 0.00 93 1006.0
20260903133014 61 224 0.0 0.0 0.00 0.00 0.00 93 1005.9
20260903131550 61 224 0.0 0.0 0.00 0.00 0.00 92 1005.9
20260903130043 62 224 0.0 0.0 0.00 0.00 0.00 92 1005.9
20260903124534 62 224 0.0 0.0 0.00 0.00 0.00 93 1005.9
20260903123028 62 224 0.0 0.0 0.00 0.00 0.00 93 1005.9
20260903121532 62 224 0.0 0.0 0.00 0.00 0.00 92 1005.9
20260903120004 62 224 0.0 0.0 0.00 0.00 0.00 92 1006.0
20260903114504 62 224 0.0 0.0 0.00 0.00 0.00 92 1006.2
20260903113103 62 224 0.0 0.0 0.00 0.00 0.00 92 1006.2
20260903113002 62 224 0.0 0.0 0.00 0.00 0.00 92 1006.2
20260903111554 62 224 0.0 0.0 0.00 0.00 0.00 91 1006.2
20260903110031 62 224 0.0 0.0 0.00 0.00 0.00 91 1006.3
20260903104514 63 224 0.0 0.0 0.00 0.00 0.00 92 1006.4
20260903103007 63 224 0.0 0.0 0.00 0.00 0.00 90 1006.4
20260903101534 63 224 0.0 0.0 0.00 0.00 0.00 90 1006.4
20260903100032 63 224 0.0 0.0 0.00 0.00 0.00 89 1006.5
20260903094504 63 224 0.0 0.0 0.00 0.00 0.00 89 1006.5
20260903093059 64 224 0.0 0.0 0.00 0.00 0.00 89 1006.5
20260903093001 63 224 0.0 0.0 0.00 0.00 0.00 89 1006.5
20260903091539 63 224 0.0 0.0 0.00 0.00 0.00 89 1006.5
20260903090020 63 224 0.0 0.0 0.00 0.00 0.00 87 1006.9
20260903084517 63 224 0.0 0.0 0.00 0.00 0.00 86 1007.0
20260903083054 64 224 0.0 0.0 0.00 0.00 0.00 85 1007.0
20260903081540 64 224 0.0 0.0 0.00 0.00 0.00 85 1007.0
20260903080025 65 224 0.0 0.0 0.00 0.00 0.00 85 1007.0
20260903074515 65 275 0.0 0.0 0.00 0.00 0.00 85 1007.0
20260903073048 65 280 0.0 0.0 0.00 0.00 0.00 84 1007.0
20260903071537 65 246 0.0 0.0 0.00 0.00 0.00 84 1007.0
20260903070032 65 275 0.0 0.0 0.00 0.00 0.00 83 1007.0
20260903064508 64 254 0.0 0.0 0.00 0.00 0.00 83 1007.0
20260903063028 64 254 0.0 0.0 0.00 0.00 0.00 82 1007.0
20260903061542 65 254 0.0 0.0 0.00 0.00 0.00 82 1007.0
20260903060022 66 254 0.0 0.0 0.00 0.00 0.00 81 1006.6
20260903054520 66 253 1.0 0.0 0.00 0.00 0.00 82 1006.5
20260903053006 66 263 2.0 0.0 0.00 0.00 0.00 82 1006.5
20260903051558 66 212 2.0 0.0 0.00 0.00 0.00 81 1006.5
20260903050056 66 261 3.0 0.0 0.00 0.00 0.00 81 1006.6
20260903044553 66 245 2.0 0.0 0.00 0.00 0.00 81 1006.6
20260903043036 66 250 3.0 0.0 0.00 0.00 0.00 79 1006.6
20260903041533 66 257 1.0 0.0 0.00 0.00 0.00 78 1006.8
20260903040018 66 230 0.0 0.0 0.00 0.00 0.00 79 1006.6
20260903034514 66 258 0.0 0.0 0.00 0.00 0.00 77 1006.5
20260903033052 66 221 0.0 0.0 0.00 0.00 0.00 76 1006.5
20260903031528 66 221 0.0 0.0 0.00 0.00 0.00 76 1006.5
20260903030026 66 213 0.0 0.0 0.00 0.00 0.00 75 1006.5
20260903024520 66 213 0.0 0.0 0.00 0.00 0.00 73 1006.2
20260903023018 67 209 0.0 0.0 0.00 0.00 0.00 72 1006.4
20260903021516 67 255 1.0 0.0 0.00 0.00 0.00 72 1006.3
20260903020039 67 237 1.0 0.0 0.00 0.00 0.00 71 1006.3
20260903014513 67 244 1.0 0.0 0.00 0.00 0.00 68 1006.2
20260903013009 68 263 1.0 0.0 0.00 0.00 0.00 68 1006.3
20260903011516 69 269 1.0 0.0 0.00 0.00 0.00 66 1006.2
20260903010105 70 215 1.0 0.0 0.00 0.00 0.00 66 1006.2
20260903004535 70 261 2.0 0.0 0.00 0.00 0.00 64 1006.1
20260903003017 71 198 4.0 0.0 0.00 0.00 0.00 66 1006.2
20260903001524 72 300 2.0 0.0 0.00 0.00 0.00 65 1006.4
20260903000021 71 220 4.0 0.0 0.00 0.00 0.00 65 1006.5
20260902234507 73 250 4.0 0.0 0.00 0.00 0.00 64 1006.5
20260902233031 74 281 3.0 0.0 0.00 0.00 0.00 63 1006.5
20260902231536 74 217 2.0 0.0 0.00 0.00 0.00 61 1006.6
20260902230059 75 274 2.0 0.0 0.00 0.00 0.00 60 1006.6
20260902224539 75 227 2.0 0.0 0.00 0.00 0.00 55 1006.8
20260902223046 75 265 2.0 0.0 0.00 0.00 0.00 50 1007.0
20260902221531 75 244 3.0 0.0 0.00 0.00 0.00 41 1007.1
20260902220021 76 258 2.0 0.0 0.00 0.00 0.00 45 1007.5
20260902214519 76 283 1.0 0.0 0.00 0.00 0.00 48 1007.6
20260902213011 75 239 2.0 0.0 0.00 0.00 0.00 52 1007.6
20260902211504 75 242 1.0 0.0 0.00 0.00 0.00 54 1007.7
20260902210057 75 277 2.0 0.0 0.00 0.00 0.00 52 1007.7
20260902210006 75 277 2.0 0.0 0.00 0.00 0.00 54 1007.8
20260902204545 75 285 1.0 0.0 0.00 0.00 0.00 52 1007.8
20260902203026 76 242 2.0 0.0 0.00 0.00 0.00 54 1007.8